Location: Saratoga Springs
(43.0831°N, 73.7850°W)
Time: 03:16:25
(UTC-04:00)

Vanguard 3 - Pass Details

Date: 01 May 2024
Orbit: 509 x 3232 km, 33.3° (Epoch: 26 May)

Event Time Altitude Azimuth Distance (km) Brightness Sun altitude
Rises 22:29:27 0° 196° (SSW) 6,479 11.4 -22.9°
Enters shadow 22:33:12 - 188° (S) 5,975 11.1 -23.3°
Exits shadow 22:55:09 20° 112° (ESE) 5,307 10.8 -25.6°
Drops below altitude 10° 23:01:26 10° 94° (E) 5,936 11.2 -26.1°
Sets 23:06:57 0° 82° (E) 6,692 11.6 -26.6°
